Regional Weather Roundup
Issued by NWS

Home | Current Version | Previous Version | Graphics & Text | Print | Product List | Glossary On
Versions: 1 2 3 4 5 6 7 8 9 10 11 12 13 14 15 16 17 18 19 20 21 22 23 24 25 26 27 28 29 30 31 32 33 34 35 36 37 38 39 40 41 42 43 44 45 46 47 48 49 50
864
ASUS43 KFSD 240410
RWRSD

WEATHER ROUNDUP FOR SOUTH DAKOTA
NATIONAL WEATHER SERVICE SIOUX FALLS SD
1000 PM CST FRI FEB 23 2018

NOTE: "FAIR" INDICATES FEW OR NO CLOUDS BELOW 12,000 FEET WITH NO
SIGNIFICANT WEATHER AND/OR OBSTRUCTIONS TO VISIBILITY.


SDZ001>005-009-010-012>017-240500-
NORTHWEST AND NORTH CENTRAL SOUTH DAKOTA

CITY           SKY/WX    TMP DP  RH WIND       PRES   REMARKS
BUFFALO          N/A      3  -3  76 SE5       29.93F WCI  -6
FAITH            N/A      0  -3  87 S17       30.06F WCI -21
MOBRIDGE       PTCLDY    -1  -6  79 SE8       30.17F WCI -15
$$

SDZ012>016-024>037-041>051-057-063-072>074-240500-
SOUTHWEST AND SOUTH CENTRAL SOUTH DAKOTA

CITY           SKY/WX    TMP DP  RH WIND       PRES   REMARKS
RAPID CTY ARPT CLEAR     11   2  67 SE13      30.01F WCI  -4
PIERRE         PTCLDY    -4  -6  91 E3        30.19F
CUSTER         PTCLDY    13   2  61 CALM      29.91F
ELLSWORTH AFB  PTCLDY    15   5  64 S16       29.99F WCI  -1
PHILIP         CLEAR     -1  -3  91 E5        30.14F WCI -11
PINE RIDGE     CLEAR      6   2  83 CALM      30.05F
SPEARFISH        N/A     14   7  73 S3        29.93F
WINNER         FAIR       8   4  83 SE9       30.19F WCI  -5
$$

SDZ004>011-016>023-039-040-240500-
NORTHEAST SOUTH DAKOTA

CITY           SKY/WX    TMP DP  RH WIND       PRES   REMARKS
ABERDEEN       PTCLDY   -10 -12  91 S3        30.27F FOG
WATERTOWN      CLOUDY     2   0  91 CALM      30.24F FOG
BROOKINGS      FOG       13  11  92 CALM      30.26F VSB 1/2
SISSETON         N/A      8   4  83 SW6       30.27F WCI  -2
$$

SDZ017-020-022-023-036>040-048>070-240500-
SOUTHEAST SOUTH DAKOTA

CITY           SKY/WX    TMP DP  RH WIND       PRES   REMARKS
SIOUX FALLS    FOG       16  15  96 N8        30.25F VSB 1/4 WCI   5
HURON          FOG       -2  -4  91 CALM      30.27F VSB 3/4
CHAMBERLAIN    CLEAR     -1  -4  89 CALM      30.22F
MITCHELL       FOG        4   2  91 CALM      30.28F VSB 1
YANKTON        FOG       11   9  92 CALM      30.28F VSB 1/4
$$

ABBREVIATIONS USED IN REMARKS
   TC - TEMPERATURE IN CELSIUS
  WCI - WIND CHILL INDEX
   HX - HEAT INDEX
  VSB - VISIBILITY





USA.gov is the U.S. government's official web portal to all federal, state and local government web resources and services.